Time,TemperatureF,DewpointF,PressureIn,WindDirection,WindDirectionDegrees,WindSpeedMPH,WindSpeedGustMPH,Humidity,HourlyPrecipIn,Conditions,Clouds,dailyrainin,SoftwareType,DateUTC
2013-03-06 00:04:00,31.2,14.0,32.50,SSE,163,11.0,13.0,50,0.00,,,0.00,weatherlink.com 1.10,2013-03-06 07:04:00,
2013-03-06 00:19:00,31.4,15.0,32.50,SSE,156,13.0,15.0,50,0.00,,,0.00,weatherlink.com 1.10,2013-03-06 07:19:00,
2013-03-06 00:34:00,31.2,14.0,32.50,SSE,161,15.0,16.0,50,0.00,,,0.00,weatherlink.com 1.10,2013-03-06 07:34:00,
2013-03-06 00:49:00,31.0,14.0,32.50,South,175,12.0,14.0,50,0.00,,,0.00,weatherlink.com 1.10,2013-03-06 07:49:00,
2013-03-06 01:04:00,31.3,14.0,32.50,South,169,11.0,16.0,49,0.00,,,0.00,weatherlink.com 1.10,2013-03-06 08:04:00,
2013-03-06 01:19:00,31.5,14.0,32.50,SSE,165,10.0,16.0,49,0.00,,,0.00,weatherlink.com 1.10,2013-03-06 08:19:00,
2013-03-06 01:34:00,31.2,14.0,32.50,South,173,10.0,16.0,50,0.00,,,0.00,weatherlink.com 1.10,2013-03-06 08:34:00,
2013-03-06 01:49:00,30.7,14.0,32.50,SSE,164,11.0,13.0,51,0.00,,,0.00,weatherlink.com 1.10,2013-03-06 08:49:00,
2013-03-06 02:04:00,30.6,14.0,32.50,SSE,163,11.0,13.0,51,0.00,,,0.00,weatherlink.com 1.10,2013-03-06 09:04:00,
2013-03-06 02:19:00,30.6,14.0,32.50,SSE,153,9.0,13.0,51,0.00,,,0.00,weatherlink.com 1.10,2013-03-06 09:19:00,
2013-03-06 02:34:00,30.8,14.0,32.50,SE,146,8.0,13.0,51,0.00,,,0.00,weatherlink.com 1.10,2013-03-06 09:34:00,
2013-03-06 02:49:00,31.3,14.0,32.50,South,180,9.0,10.0,50,0.00,,,0.00,weatherlink.com 1.10,2013-03-06 09:49:00,
2013-03-06 03:04:00,31.8,14.0,32.50,SSE,159,10.0,10.0,49,0.00,,,0.00,weatherlink.com 1.10,2013-03-06 10:04:00,
2013-03-06 03:19:00,31.8,14.0,32.50,SSE,163,10.0,10.0,49,0.00,,,0.00,weatherlink.com 1.10,2013-03-06 10:19:00,
2013-03-06 03:34:00,31.6,14.0,32.50,SSE,151,10.0,11.0,49,0.00,,,0.00,weatherlink.com 1.10,2013-03-06 10:34:00,
2013-03-06 03:49:00,31.1,14.0,32.50,SE,139,9.0,12.0,50,0.00,,,0.00,weatherlink.com 1.10,2013-03-06 10:49:00,
2013-03-06 04:04:00,31.0,15.0,32.50,SE,143,11.0,12.0,51,0.00,,,0.00,weatherlink.com 1.10,2013-03-06 11:04:00,
2013-03-06 04:19:00,31.0,15.0,32.50,SE,144,11.0,13.0,51,0.00,,,0.00,weatherlink.com 1.10,2013-03-06 11:19:00,
2013-03-06 04:34:00,31.1,15.0,32.50,SE,137,10.0,13.0,51,0.00,,,0.00,weatherlink.com 1.10,2013-03-06 11:34:00,
2013-03-06 04:49:00,31.0,15.0,32.50,SE,136,10.0,12.0,51,0.00,,,0.00,weatherlink.com 1.10,2013-03-06 11:49:00,
2013-03-06 05:04:00,30.5,15.0,32.50,SE,135,11.0,13.0,52,0.00,,,0.00,weatherlink.com 1.10,2013-03-06 12:04:00,
2013-03-06 05:19:00,30.5,15.0,32.50,SE,137,9.0,14.0,52,0.00,,,0.00,weatherlink.com 1.10,2013-03-06 12:19:00,
2013-03-06 05:34:00,31.0,15.0,32.50,SE,146,9.0,11.0,51,0.00,,,0.00,weatherlink.com 1.10,2013-03-06 12:34:00,
2013-03-06 05:49:00,30.9,15.0,32.50,SE,140,12.0,13.0,52,0.00,,,0.00,weatherlink.com 1.10,2013-03-06 12:49:00,
2013-03-06 06:04:00,30.5,15.0,32.50,SE,142,11.0,13.0,53,0.00,,,0.00,weatherlink.com 1.10,2013-03-06 13:04:00,
2013-03-06 06:19:00,30.3,15.0,32.50,SSE,163,8.0,16.0,54,0.00,,,0.00,weatherlink.com 1.10,2013-03-06 13:19:00,
2013-03-06 06:34:00,29.9,16.0,32.50,SSE,151,13.0,16.0,56,0.00,,,0.00,weatherlink.com 1.10,2013-03-06 13:34:00,
2013-03-06 06:49:00,29.4,16.0,32.50,SE,140,13.0,16.0,57,0.00,,,0.00,weatherlink.com 1.10,2013-03-06 13:49:00,
2013-03-06 07:04:00,29.3,16.0,32.50,SSE,155,11.0,15.0,57,0.00,,,0.00,weatherlink.com 1.10,2013-03-06 14:04:00,
2013-03-06 07:19:00,29.6,16.0,32.50,SSE,152,12.0,14.0,56,0.00,,,0.00,weatherlink.com 1.10,2013-03-06 14:19:00,
2013-03-06 07:34:00,29.9,16.0,32.50,SE,139,15.0,18.0,56,0.00,,,0.00,weatherlink.com 1.10,2013-03-06 14:34:00,
2013-03-06 07:50:00,26.2,22.0,32.50,SSE,160,9.0,16.0,84,0.00,,,0.00,weatherlink.com 1.10,2013-03-06 14:50:00,
2013-03-06 08:04:00,26.0,22.0,32.50,SE,144,7.0,10.0,86,0.00,,,0.00,weatherlink.com 1.10,2013-03-06 15:04:00,
2013-03-06 08:19:00,25.7,23.0,32.50,SSE,161,8.0,10.0,89,0.00,,,0.00,weatherlink.com 1.10,2013-03-06 15:19:00,
2013-03-06 08:34:00,25.6,24.0,32.50,SSE,155,10.0,14.0,92,0.00,,,0.00,weatherlink.com 1.10,2013-03-06 15:34:00,
2013-03-06 08:49:00,26.3,24.0,32.50,SSE,164,8.0,14.0,92,0.00,,,0.00,weatherlink.com 1.10,2013-03-06 15:49:00,
2013-03-06 09:04:00,26.3,24.0,32.50,SSE,155,10.0,14.0,92,0.00,,,0.00,weatherlink.com 1.10,2013-03-06 16:04:00,
2013-03-06 09:19:00,26.9,25.0,32.50,South,178,10.0,14.0,93,0.00,,,0.00,weatherlink.com 1.10,2013-03-06 16:19:00,
2013-03-06 09:34:00,27.9,26.0,32.50,SSW,192,11.0,14.0,93,0.00,,,0.00,weatherlink.com 1.10,2013-03-06 16:34:00,
2013-03-06 09:50:00,28.7,27.0,32.50,South,190,13.0,16.0,93,0.00,,,0.00,weatherlink.com 1.10,2013-03-06 16:50:00,
2013-03-06 10:05:00,28.8,27.0,32.50,SSW,197,13.0,18.0,93,0.00,,,0.00,weatherlink.com 1.10,2013-03-06 17:05:00,
2013-03-06 10:20:00,29.0,27.0,32.50,South,182,17.0,19.0,92,0.00,,,0.00,weatherlink.com 1.10,2013-03-06 17:20:00,
2013-03-06 10:35:00,29.4,27.0,32.50,SSE,163,19.0,20.0,89,0.00,,,0.00,weatherlink.com 1.10,2013-03-06 17:35:00,
2013-03-06 10:50:00,30.0,25.0,32.50,SSE,165,16.0,22.0,82,0.00,,,0.00,weatherlink.com 1.10,2013-03-06 17:50:00,
2013-03-06 11:05:00,30.4,25.0,32.50,South,187,16.0,20.0,80,0.00,,,0.00,weatherlink.com 1.10,2013-03-06 18:05:00,
2013-03-06 11:20:00,30.8,24.0,32.50,SSW,194,15.0,21.0,77,0.00,,,0.00,weatherlink.com 1.10,2013-03-06 18:20:00,
2013-03-06 11:35:00,31.3,25.0,32.50,SSE,162,13.0,22.0,77,0.00,,,0.00,weatherlink.com 1.10,2013-03-06 18:35:00,
2013-03-06 11:50:00,31.5,24.0,32.50,SSW,205,14.0,17.0,75,0.00,,,0.00,weatherlink.com 1.10,2013-03-06 18:50:00,
2013-03-06 12:05:00,31.9,25.0,32.50,South,182,12.0,19.0,77,0.00,,,0.00,weatherlink.com 1.10,2013-03-06 19:05:00,
2013-03-06 12:20:00,31.9,25.0,32.50,South,176,10.0,17.0,74,0.00,,,0.00,weatherlink.com 1.10,2013-03-06 19:20:00,
2013-03-06 12:35:00,32.9,25.0,32.50,South,182,15.0,18.0,73,0.00,,,0.00,weatherlink.com 1.10,2013-03-06 19:35:00,
2013-03-06 12:50:00,33.1,25.0,32.50,SSE,165,11.0,15.0,72,0.00,,,0.00,weatherlink.com 1.10,2013-03-06 19:50:00,
2013-03-06 13:05:00,32.6,25.0,32.50,SSW,193,10.0,16.0,74,0.00,,,0.00,weatherlink.com 1.10,2013-03-06 20:05:00,
2013-03-06 13:20:00,32.2,26.0,32.50,SSW,204,8.0,17.0,77,0.00,,,0.00,weatherlink.com 1.10,2013-03-06 20:20:00,
2013-03-06 13:35:00,32.6,25.0,32.50,South,183,4.0,9.0,74,0.00,,,0.00,weatherlink.com 1.10,2013-03-06 20:35:00,
2013-03-06 13:50:00,33.0,27.0,32.50,ESE,113,3.0,7.0,80,0.00,,,0.00,weatherlink.com 1.10,2013-03-06 20:50:00,
2013-03-06 14:05:00,34.0,28.0,32.50,SSW,199,11.0,13.0,80,0.00,,,0.00,weatherlink.com 1.10,2013-03-06 21:05:00,
2013-03-06 14:20:00,34.5,27.0,32.50,South,178,7.0,8.0,75,0.00,,,0.00,weatherlink.com 1.10,2013-03-06 21:20:00,
2013-03-06 14:35:00,34.7,26.0,32.50,SSE,157,7.0,9.0,71,0.00,,,0.00,weatherlink.com 1.10,2013-03-06 21:35:00,
2013-03-06 14:50:00,33.0,27.0,32.50,SSE,153,11.0,14.0,78,0.00,,,0.00,weatherlink.com 1.10,2013-03-06 21:50:00,
2013-03-06 15:05:00,31.3,27.0,32.50,SSE,166,14.0,17.0,84,0.00,,,0.00,weatherlink.com 1.10,2013-03-06 22:05:00,
2013-03-06 15:20:00,31.6,26.0,32.50,South,169,18.0,24.0,80,0.00,,,0.00,weatherlink.com 1.10,2013-03-06 22:20:00,
2013-03-06 15:35:00,31.5,27.0,32.50,SSE,148,16.0,21.0,84,0.00,,,0.00,weatherlink.com 1.10,2013-03-06 22:35:00,
2013-03-06 15:50:00,31.5,28.0,32.50,SSE,153,11.0,15.0,85,0.00,,,0.00,weatherlink.com 1.10,2013-03-06 22:50:00,
2013-03-06 16:05:00,30.8,28.0,32.50,SSW,204,9.0,16.0,88,0.00,,,0.00,weatherlink.com 1.10,2013-03-06 23:05:00,
2013-03-06 16:20:00,30.6,29.0,32.50,South,170,15.0,18.0,92,0.00,,,0.00,weatherlink.com 1.10,2013-03-06 23:20:00,
2013-03-06 16:35:00,33.2,29.0,32.50,SSE,165,10.0,15.0,83,0.00,,,0.00,weatherlink.com 1.10,2013-03-06 23:35:00,
2013-03-06 16:50:00,33.2,29.0,32.50,SSE,165,8.0,18.0,83,0.00,,,0.00,weatherlink.com 1.10,2013-03-06 23:50:00,
2013-03-06 17:05:00,31.8,28.0,32.50,South,188,14.0,17.0,87,0.00,,,0.00,weatherlink.com 1.10,2013-03-07 00:05:00,
2013-03-06 17:20:00,31.5,28.0,32.50,South,188,18.0,21.0,88,0.00,,,0.00,weatherlink.com 1.10,2013-03-07 00:20:00,
2013-03-06 17:35:00,31.3,29.0,32.50,SSW,206,14.0,24.0,89,0.01,,,0.01,weatherlink.com 1.10,2013-03-07 00:35:00,
2013-03-06 17:50:00,29.8,28.0,32.50,NW,321,9.0,14.0,92,0.01,,,0.01,weatherlink.com 1.10,2013-03-07 00:50:00,
2013-03-06 18:05:00,29.0,27.0,32.50,North,9,11.0,16.0,93,0.01,,,0.01,weatherlink.com 1.10,2013-03-07 01:05:00,
2013-03-06 18:20:00,29.0,27.0,32.50,NNE,13,5.0,8.0,93,0.01,,,0.01,weatherlink.com 1.10,2013-03-07 01:20:00,
2013-03-06 18:35:00,29.1,28.0,32.50,NE,43,1.0,6.0,94,0.00,,,0.01,weatherlink.com 1.10,2013-03-07 01:35:00,
2013-03-06 18:50:00,29.4,28.0,32.50,East,98,8.0,8.0,94,0.00,,,0.01,weatherlink.com 1.10,2013-03-07 01:50:00,
2013-03-06 19:05:00,30.0,29.0,32.50,SE,144,8.0,10.0,94,0.00,,,0.01,weatherlink.com 1.10,2013-03-07 02:05:00,
2013-03-06 19:20:00,30.2,29.0,32.50,South,181,9.0,11.0,95,0.00,,,0.01,weatherlink.com 1.10,2013-03-07 02:20:00,
2013-03-06 19:35:00,30.2,29.0,32.50,SSE,159,13.0,17.0,95,0.00,,,0.01,weatherlink.com 1.10,2013-03-07 02:35:00,
2013-03-06 19:50:00,30.1,29.0,32.50,SSE,162,12.0,15.0,95,0.00,,,0.01,weatherlink.com 1.10,2013-03-07 02:50:00,
2013-03-06 20:05:00,30.1,29.0,32.50,SSE,159,10.0,15.0,95,0.00,,,0.01,weatherlink.com 1.10,2013-03-07 03:05:00,
2013-03-06 20:20:00,29.9,29.0,32.50,South,189,12.0,14.0,95,0.00,,,0.01,weatherlink.com 1.10,2013-03-07 03:20:00,
2013-03-06 20:35:00,29.9,29.0,32.50,South,191,13.0,16.0,95,0.00,,,0.01,weatherlink.com 1.10,2013-03-07 03:35:00,
2013-03-06 20:50:00,29.8,29.0,32.50,South,188,16.0,17.0,95,0.00,,,0.01,weatherlink.com 1.10,2013-03-07 03:50:00,
2013-03-06 21:05:00,29.7,29.0,32.50,SSW,201,11.0,19.0,95,0.00,,,0.01,weatherlink.com 1.10,2013-03-07 04:05:00,
2013-03-06 21:20:00,29.6,28.0,32.50,SSW,213,14.0,15.0,95,0.00,,,0.01,weatherlink.com 1.10,2013-03-07 04:20:00,
2013-03-06 21:35:00,29.4,28.0,32.50,South,186,13.0,14.0,95,0.00,,,0.01,weatherlink.com 1.10,2013-03-07 04:35:00,
2013-03-06 21:50:00,28.7,27.0,32.50,South,181,9.0,14.0,94,0.00,,,0.01,weatherlink.com 1.10,2013-03-07 04:50:00,
2013-03-06 22:05:00,29.0,28.0,32.50,SSW,202,8.0,12.0,95,0.00,,,0.01,weatherlink.com 1.10,2013-03-07 05:05:00,
2013-03-06 22:20:00,28.9,28.0,32.50,SSW,196,10.0,12.0,95,0.00,,,0.01,weatherlink.com 1.10,2013-03-07 05:20:00,
2013-03-06 22:35:00,28.7,28.0,32.50,South,189,14.0,15.0,95,0.00,,,0.01,weatherlink.com 1.10,2013-03-07 05:35:00,
2013-03-06 22:50:00,28.5,27.0,32.50,SW,220,14.0,17.0,93,0.00,,,0.01,weatherlink.com 1.10,2013-03-07 05:50:00,
2013-03-06 23:05:00,28.4,26.0,32.50,South,184,12.0,14.0,92,0.00,,,0.01,weatherlink.com 1.10,2013-03-07 06:05:00,
2013-03-06 23:20:00,28.2,27.0,32.50,South,182,11.0,14.0,93,0.00,,,0.01,weatherlink.com 1.10,2013-03-07 06:20:00,
2013-03-06 23:35:00,28.4,27.0,32.50,South,185,14.0,18.0,93,0.00,,,0.01,weatherlink.com 1.10,2013-03-07 06:35:00,
2013-03-06 23:50:00,28.1,27.0,32.50,South,184,10.0,11.0,94,0.00,,,0.01,weatherlink.com 1.10,2013-03-07 06:50:00,